Date_and_time,latitude,longitude,wind_speed,RelWindDirFrom,WindDirFrom,air_pressure,air_temperature,relative_humidity,Temp,platform_speed_wrt_ground,air_pressure_at_mean_sea_level,platform_orientation
2019-10-17 23:40,50.63043,-96.98076,11.1,13.6,109,980.44,8.8,77,6.16,0.0,1007.21,90.0
2019-10-17 23:50,50.6304283333333,-96.98076,10.6,11.9,104,980.33,8.2,83,6.16,0.0,1007.10,90.0
2019-10-18 00:00,50.63043,-96.9807616666667,11.4,12.9,108,980.27,8.2,84,6.17,0.0,1007.03,90.0
2019-10-18 00:10,50.6304266666667,-96.9807666666667,12.4,14.4,109,980.20,8.2,84,6.18,0.0,1006.97,90.0
2019-10-18 00:20,50.6304316666667,-96.9807566666667,13.7,15.3,108,979.99,8.3,82,6.22,0.0,1006.76,90.0
2019-10-18 00:30,50.6304283333333,-96.980755,13.9,16.0,109,979.91,8.3,83,6.20,0.0,1006.68,90.0
2019-10-18 00:40,50.63043,-96.9807566666667,14.9,17.0,108,979.59,8.3,82,6.16,0.0,1006.34,90.0
2019-10-18 00:50,50.63043,-96.9807583333333,14.5,16.6,113,979.71,8.3,81,6.13,0.0,1006.46,90.0
2019-10-18 01:00,50.63043,-96.98076,14.4,17.2,113,979.71,8.2,82,6.12,0.0,1006.47,360.0
2019-10-18 01:10,50.6304316666667,-96.9807633333333,15.3,17.7,110,979.44,8.2,82,6.12,0.0,1006.20,360.0
2019-10-18 01:20,50.6304316666667,-96.9807633333333,14.4,16.5,108,979.42,8.1,83,6.16,0.0,1006.18,360.0
2019-10-18 01:30,50.6304316666667,-96.9807683333333,14.3,16.7,108,979.32,8.0,84,6.19,0.0,1006.11,360.0
2019-10-18 01:40,50.6304283333333,-96.9807666666667,14.5,16.2,107,979.19,7.9,86,6.20,0.0,1006.02,360.0
2019-10-18 01:50,50.6304316666667,-96.9807666666667,14.6,16.8,109,979.18,7.7,88,6.19,0.0,1006.01,360.0
2019-10-18 02:00,50.6304333333333,-96.9807683333333,15.7,18.4,109,978.93,7.6,88,6.19,0.0,1005.75,347.4
2019-10-18 02:10,50.6304333333333,-96.9807666666667,16.2,19.1,111,978.77,7.6,88,6.19,0.0,1005.58,347.4
2019-10-18 02:20,50.6304333333333,-96.980765,15.9,18.8,115,978.57,7.6,88,6.18,0.0,1005.38,347.4
2019-10-18 02:30,50.6304333333333,-96.980765,15.5,19.2,119,978.60,7.6,87,6.18,0.0,1005.41,347.4
2019-10-18 02:40,50.630435,-96.980765,15.7,20.2,121,978.62,7.7,84,6.17,0.0,1005.43,347.4
2019-10-18 02:50,50.630435,-96.980765,16.3,19.8,120,978.53,7.8,85,6.17,0.0,1005.33,347.4
2019-10-18 03:00,50.630435,-96.9807633333333,15.8,20.4,120,978.44,7.7,85,6.16,0.0,1005.25,345.5
2019-10-18 03:10,50.6304333333333,-96.9807633333333,15.4,20.0,121,978.43,7.6,85,6.17,0.0,1005.25,345.5
2019-10-18 03:20,50.6304283333333,-96.9807616666667,15.2,19.8,124,978.38,7.5,84,6.17,0.0,1005.20,345.5
2019-10-18 03:30,50.6304333333333,-96.9807483333333,15.6,20.6,125,978.47,7.5,83,6.17,0.0,1005.30,345.5
2019-10-18 03:40,50.6304383333333,-96.980755,15.0,20.5,124,978.44,7.5,83,6.17,0.0,1005.28,345.5
2019-10-18 03:50,50.6304383333333,-96.98076,14.4,19.3,123,978.30,7.5,84,6.17,0.0,1005.15,345.5
2019-10-18 04:00,50.6304366666667,-96.98076,12.2,16.6,125,978.37,7.2,85,6.17,0.0,1005.23,360.0
2019-10-18 04:10,50.6304366666667,-96.9807616666667,12.6,17.4,123,978.19,7.3,85,6.17,0.0,1005.03,360.0
2019-10-18 04:20,50.6304383333333,-96.9807616666667,12.8,17.3,125,978.07,7.2,85,6.18,0.0,1004.92,360.0
2019-10-18 04:30,50.6304383333333,-96.9807616666667,13.7,17.7,127,978.01,7.1,84,6.18,0.0,1004.86,360.0
2019-10-18 04:40,50.6304566666667,-96.9807483333333,13.7,18.2,126,977.95,7.1,84,6.18,0.0,1004.79,360.0
2019-10-18 04:50,50.630445,-96.980795,14.4,19.0,125,977.73,7.2,85,6.18,0.0,1004.57,360.0
2019-10-18 05:00,50.630445,-96.9807783333333,15.9,21.2,123,977.42,7.3,84,6.18,0.0,1004.25,304.8
2019-10-18 05:10,50.63044,-96.9807666666667,16.6,22.2,121,977.17,7.4,83,6.18,0.0,1003.99,304.8
2019-10-18 05:20,50.6304383333333,-96.980765,16.7,22.5,123,977.08,7.3,83,6.18,0.0,1003.90,304.8
2019-10-18 05:30,50.63044,-96.98077,16.2,20.9,126,977.05,7.1,83,6.18,0.0,1003.88,304.8
2019-10-18 05:40,50.63044,-96.9807666666667,16.5,21.9,125,976.91,7.1,83,6.18,0.0,1003.74,304.8
2019-10-18 05:50,50.63044,-96.9807666666667,17.4,22.4,128,976.93,7.1,82,6.18,0.0,1003.78,304.8
2019-10-18 06:00,50.6304416666667,-96.9807766666667,16.8,19.7,132,977.03,6.8,84,6.18,0.0,1003.88,311.7
2019-10-18 06:10,50.6304366666667,-96.9807683333333,15.4,19.6,130,976.93,6.8,84,6.19,0.0,1003.78,311.7
2019-10-18 06:20,50.6304016666667,-96.98074,15.1,19.3,131,976.91,6.8,84,6.18,0.0,1003.77,311.7
2019-10-18 06:30,50.6304316666667,-96.98076,14.7,18.9,125,976.62,7.0,84,6.18,0.0,1003.46,311.7
2019-10-18 06:40,50.6304316666667,-96.98076,15.3,20.1,120,976.36,7.4,83,6.18,0.0,1003.17,311.7
2019-10-18 06:50,50.630435,-96.980775,14.6,19.7,120,976.38,7.4,84,6.18,0.0,1003.19,311.7
2019-10-18 07:00,50.6304366666667,-96.98077,14.4,18.5,120,976.27,7.4,85,6.20,0.0,1003.07,270.0
2019-10-18 07:10,50.630435,-96.9807716666667,14.6,18.5,121,976.17,7.3,86,6.22,0.0,1002.98,270.0
2019-10-18 07:20,50.6304383333333,-96.980775,15.3,18.8,120,975.92,7.3,87,6.22,0.0,1002.73,270.0
2019-10-18 07:30,50.630435,-96.9807633333333,15.7,20.7,120,975.78,7.2,86,6.21,0.0,1002.58,270.0
2019-10-18 07:40,50.6304383333333,-96.9807633333333,15.3,20.0,123,975.70,7.2,85,6.20,0.0,1002.51,270.0
2019-10-18 07:50,50.6304366666667,-96.98076,15.7,20.8,122,975.51,7.3,85,6.19,0.0,1002.32,270.0
2019-10-18 08:00,50.6304233333333,-96.9807566666667,16.1,21.1,124,975.35,7.2,84,6.18,0.0,1002.17,127.0
2019-10-18 08:10,50.630425,-96.9807533333333,16.0,23.1,123,975.18,7.3,84,6.18,0.0,1001.99,127.0
2019-10-18 08:20,50.6304216666667,-96.9807566666667,16.4,20.6,120,974.94,7.4,85,6.19,0.0,1001.72,127.0
2019-10-18 08:30,50.6304233333333,-96.98076,17.2,21.6,121,974.74,7.4,85,6.19,0.0,1001.50,127.0
2019-10-18 08:40,50.6304233333333,-96.9807616666667,16.4,21.2,120,974.51,7.4,85,6.18,0.0,1001.27,127.0
2019-10-18 08:50,50.630425,-96.98076,16.2,20.1,119,974.33,7.4,85,6.18,0.0,1001.08,127.0
2019-10-18 09:00,50.6304266666667,-96.9807583333333,16.6,20.6,121,974.21,7.3,85,6.18,0.0,1000.96,147.5
2019-10-18 09:10,50.6304266666667,-96.9807583333333,16.3,21.5,121,974.09,7.4,83,6.18,0.0,1000.84,147.5
2019-10-18 09:20,50.6304283333333,-96.98076,16.5,22.8,123,973.96,7.3,83,6.18,0.0,1000.71,147.5
2019-10-18 09:30,50.6304283333333,-96.98076,17.3,23.1,121,973.77,7.4,82,6.18,0.0,1000.50,147.5
2019-10-18 09:40,50.63043,-96.9807616666667,16.1,21.2,123,973.77,7.3,83,6.18,0.0,1000.51,147.5
2019-10-18 09:50,50.63043,-96.9807616666667,16.1,23.2,124,973.68,7.2,83,6.18,0.0,1000.43,147.5
2019-10-18 10:00,50.6304283333333,-96.980765,16.0,21.6,124,973.44,7.2,83,6.18,0.0,1000.18,360.0
2019-10-18 10:10,50.6304266666667,-96.9807616666667,16.6,21.9,123,973.17,7.3,83,6.17,0.0,999.89,360.0
2019-10-18 10:20,50.6304283333333,-96.9807583333333,16.7,23.1,123,972.99,7.3,83,6.16,0.0,999.70,360.0
2019-10-18 10:30,50.6304266666667,-96.9807583333333,16.1,21.6,124,973.04,7.3,82,6.16,0.0,999.76,360.0
2019-10-18 10:40,50.6304283333333,-96.9807583333333,16.6,21.6,123,973.08,7.3,82,6.16,0.0,999.80,360.0
2019-10-18 10:50,50.6304283333333,-96.98076,16.1,21.0,123,973.02,7.3,83,6.16,0.0,999.75,360.0
2019-10-18 11:00,50.6304283333333,-96.98076,15.7,21.4,124,972.91,7.2,83,6.17,0.0,999.63,90.0
2019-10-18 11:10,50.6304283333333,-96.98076,15.5,21.1,123,972.77,7.2,83,6.18,0.0,999.49,90.0
2019-10-18 11:20,50.6304283333333,-96.9807583333333,14.4,19.4,123,972.74,7.1,84,6.18,0.0,999.45,90.0
2019-10-18 11:30,50.6304283333333,-96.9807583333333,14.5,19.2,121,972.69,7.1,85,6.17,0.0,999.41,90.0
2019-10-18 11:40,50.6304283333333,-96.98076,14.1,19.2,121,972.58,7.3,84,6.17,0.0,999.29,90.0
2019-10-18 11:50,50.6304283333333,-96.98076,14.0,18.4,120,972.41,7.2,86,6.17,0.0,999.12,90.0
2019-10-18 12:00,50.63042,-96.9807616666667,14.2,18.4,120,972.22,7.2,87,6.16,0.0,998.93,142.0
2019-10-18 12:10,50.630425,-96.9807616666667,15.2,18.9,120,972.01,7.2,86,6.16,0.0,998.72,142.0
2019-10-18 12:20,50.6304266666667,-96.9807666666667,15.1,19.1,121,971.80,7.1,86,6.16,0.0,998.50,142.0
2019-10-18 12:30,50.6304266666667,-96.9807683333333,14.5,19.1,122,971.73,7.1,86,6.15,0.0,998.42,142.0
2019-10-18 12:40,50.6304316666667,-96.9807483333333,15.8,20.9,120,971.52,7.1,86,6.13,0.0,998.21,142.0
2019-10-18 12:50,50.6304366666667,-96.9807716666667,16.3,19.9,120,971.31,7.2,87,6.12,0.0,998.00,142.0
2019-10-18 13:00,50.630435,-96.9807716666667,14.8,19.0,120,971.33,7.1,88,6.12,0.0,998.02,345.5
2019-10-18 13:10,50.6304366666667,-96.98077,14.8,19.7,121,971.22,7.0,88,6.13,0.0,997.92,345.5
2019-10-18 13:20,50.6304366666667,-96.98077,14.9,19.3,122,971.19,7.0,87,6.16,0.0,997.89,345.5
2019-10-18 13:30,50.6304366666667,-96.98077,14.4,19.2,122,971.14,6.9,87,6.18,0.0,997.83,345.5
2019-10-18 13:40,50.6304366666667,-96.98077,13.7,19.0,120,971.07,7.0,88,6.18,0.0,997.76,345.5
2019-10-18 13:50,50.6304383333333,-96.98077,13.6,18.6,123,971.03,6.9,89,6.18,0.0,997.72,345.5
2019-10-18 14:00,50.6304383333333,-96.98077,13.4,19.1,124,971.04,6.8,88,6.16,0.0,997.74,360.0
2019-10-18 14:10,50.6304383333333,-96.98076,13.4,18.6,126,970.96,6.8,88,6.15,0.0,997.66,360.0
2019-10-18 14:20,50.6304366666667,-96.9807533333333,14.4,19.3,125,970.83,6.9,88,6.15,0.0,997.52,360.0
2019-10-18 14:30,50.6304366666667,-96.9807566666667,12.7,17.4,124,970.76,6.9,89,6.16,0.0,997.45,360.0
2019-10-18 14:40,50.630435,-96.9807516666667,13.6,18.0,124,970.61,6.9,89,6.17,0.0,997.29,360.0
2019-10-18 14:50,50.6304333333333,-96.980755,14.0,18.8,121,970.42,7.0,89,6.17,0.0,997.09,360.0
2019-10-18 15:00,50.6304333333333,-96.9807583333333,14.9,18.6,120,970.24,7.1,89,6.17,0.0,996.91,360.0
2019-10-18 15:10,50.6304266666667,-96.9807766666667,14.5,19.4,121,970.21,7.1,89,6.17,0.0,996.88,360.0
2019-10-18 15:20,50.6304266666667,-96.9807716666667,13.5,17.7,123,970.19,7.2,88,6.18,0.0,996.86,360.0
2019-10-18 15:30,50.6304166666667,-96.980765,12.9,16.5,124,970.13,7.5,87,6.18,0.0,996.78,360.0
2019-10-18 15:40,50.6304283333333,-96.9807683333333,13.2,16.5,129,969.99,7.4,86,6.18,0.0,996.64,360.0
2019-10-18 15:50,50.6304333333333,-96.9807633333333,13.3,16.3,136,969.92,7.3,87,6.19,0.0,996.58,360.0
2019-10-18 16:00,50.6304333333333,-96.9807633333333,12.5,14.4,141,969.95,7.4,86,6.18,0.0,996.61,131.7
2019-10-18 16:10,50.6304333333333,-96.980765,11.2,15.0,146,969.92,7.4,86,6.18,0.0,996.57,131.7
2019-10-18 16:20,50.6304333333333,-96.980765,9.8,13.1,149,969.88,7.3,88,6.19,0.0,996.53,131.7
2019-10-18 16:30,50.6304333333333,-96.9807666666667,9.7,12.7,151,969.70,7.2,89,6.19,0.0,996.36,131.7
2019-10-18 16:40,50.6304333333333,-96.9807666666667,10.0,13.0,150,969.60,7.4,87,6.19,0.0,996.24,131.7
2019-10-18 16:50,50.6304316666667,-96.980765,9.4,12.5,146,969.49,7.6,87,6.20,0.0,996.11,131.7
2019-10-18 17:00,50.6304316666667,-96.9807633333333,11.9,14.5,140,969.30,7.7,86,6.21,0.0,995.91,360.0
2019-10-18 17:10,50.630445,-96.9807733333333,13.4,16.3,138,969.22,7.8,85,6.22,0.0,995.82,360.0
2019-10-18 17:20,50.6304383333333,-96.98077,12.1,16.0,142,969.18,8.0,86,6.23,0.0,995.75,360.0
2019-10-18 17:30,50.6304366666667,-96.980765,13.2,16.4,146,969.12,8.2,85,6.24,0.0,995.69,360.0
2019-10-18 17:40,50.630435,-96.980765,13.2,15.5,142,969.04,8.3,83,6.25,0.0,995.60,360.0
2019-10-18 17:50,50.6304333333333,-96.980765,13.3,17.6,139,968.92,8.2,85,6.27,0.0,995.48,360.0
2019-10-18 18:00,50.6304333333333,-96.980765,11.7,15.7,143,968.81,8.1,86,6.28,0.0,995.37,270.0
2019-10-18 18:10,50.6304333333333,-96.980765,12.5,15.1,139,968.66,8.3,85,6.29,0.0,995.22,270.0
2019-10-18 18:20,50.63043,-96.98076,12.2,14.1,138,968.55,8.3,85,6.29,0.0,995.11,270.0
2019-10-18 18:30,50.63043,-96.98076,12.0,14.5,139,968.53,8.2,86,6.29,0.0,995.08,270.0
2019-10-18 18:40,50.6304133333333,-96.9807533333333,10.9,13.1,143,968.58,8.2,87,6.30,0.0,995.12,270.0
2019-10-18 18:50,50.6304183333333,-96.9807566666667,10.7,13.1,144,968.63,8.2,87,6.30,0.0,995.17,270.0
2019-10-18 19:00,50.63042,-96.9807616666667,9.4,11.9,150,968.55,8.3,87,6.31,0.0,995.07,165.5
2019-10-18 19:10,50.6304216666667,-96.9807616666667,10.4,12.9,146,968.45,8.3,87,6.32,0.0,994.97,165.5
2019-10-18 19:20,50.6304233333333,-96.98076,10.5,13.4,148,968.43,8.4,87,6.32,0.0,994.94,165.5
2019-10-18 19:30,50.630425,-96.9807616666667,10.1,12.8,153,968.54,8.4,87,6.32,0.0,995.03,165.5
2019-10-18 19:40,50.630425,-96.9807616666667,10.6,12.9,158,968.67,8.8,84,6.33,0.0,995.15,165.5
2019-10-18 19:50,50.630425,-96.98076,8.6,12.2,150,968.49,9.1,84,6.33,0.0,994.97,165.5
2019-10-18 20:00,50.6304516666667,-96.98078,8.3,9.8,148,968.38,9.1,83,6.36,0.0,994.84,332.6
2019-10-18 20:10,50.6304366666667,-96.9807633333333,7.5,10.0,151,968.29,9.3,83,6.37,0.0,994.73,332.6
2019-10-18 20:20,50.6304383333333,-96.98076,7.8,9.6,147,968.11,9.4,83,6.37,0.0,994.55,332.6
2019-10-18 20:30,50.6304466666667,-96.9807566666667,8.4,10.1,144,968.01,9.4,83,6.37,0.0,994.45,332.6
2019-10-18 20:40,50.6304433333333,-96.9807616666667,8.9,9.9,143,968.06,9.3,83,6.36,0.0,994.50,332.6
2019-10-18 20:50,50.63044,-96.98076,9.2,11.2,144,967.94,9.2,84,6.36,0.0,994.38,332.6
2019-10-18 21:00,50.6304366666667,-96.9807566666667,8.4,9.8,149,967.87,8.9,87,6.36,0.0,994.32,48.3
2019-10-18 21:10,50.6304366666667,-96.9807583333333,7.9,9.1,150,967.82,9.0,86,6.36,0.0,994.26,48.3
2019-10-18 21:20,50.6304383333333,-96.9807583333333,7.9,9.1,155,967.95,9.3,85,6.36,0.0,994.38,48.3
2019-10-18 21:30,50.6304366666667,-96.9807583333333,7.5,8.8,153,968.03,9.5,84,6.36,0.0,994.44,48.3
2019-10-18 21:40,50.6304333333333,-96.9807783333333,7.5,9.3,154,968.14,9.6,85,6.36,0.0,994.54,48.3
2019-10-18 21:50,50.6304333333333,-96.9807766666667,7.5,10.0,167,968.28,9.8,84,6.35,0.0,994.66,48.3
2019-10-18 22:00,50.630405,-96.9807716666667,8.4,12.2,183,968.37,10.6,81,6.34,0.0,994.71,183.2
2019-10-18 22:10,50.6304166666667,-96.980775,10.0,13.5,181,968.28,11.0,79,6.34,0.0,994.59,183.2
2019-10-18 22:20,50.6304233333333,-96.9807683333333,8.7,11.7,176,968.30,10.9,80,6.37,0.0,994.63,183.2
2019-10-18 22:30,50.6304216666667,-96.9807833333333,9.3,12.1,179,968.43,10.8,80,6.39,0.0,994.77,183.2
2019-10-18 22:40,50.6304133333333,-96.9807716666667,9.5,13.1,179,968.56,10.9,80,6.42,0.0,994.90,183.2
2019-10-18 22:50,50.6304166666667,-96.98077,9.7,12.8,180,968.60,10.8,80,6.44,0.0,994.96,183.2
2019-10-18 23:00,50.6304133333333,-96.9807683333333,8.0,10.3,185,968.70,10.7,81,6.47,0.0,995.06,161.5
2019-10-18 23:10,50.6304133333333,-96.9807683333333,7.8,10.8,175,968.75,10.6,82,6.50,0.0,995.10,161.5
2019-10-18 23:20,50.630415,-96.9807683333333,6.2,8.0,170,968.76,10.4,84,6.52,0.0,995.11,161.5
2019-10-18 23:30,50.6304166666667,-96.9807683333333,5.2,6.5,177,968.85,10.2,86,6.53,0.0,995.21,161.5
2019-10-18 23:40,50.6304183333333,-96.9807683333333,6.0,8.1,184,968.90,10.2,86,6.55,0.0,995.25,161.5
2019-10-18 23:50,50.6304466666667,-96.9807833333333,6.1,7.7,184,968.95,10.2,86,6.55,0.0,995.26,161.5
